This is the latest recevied weather packets stored in our database for station/object TG9SRP-22. If no packets are shown the sender has not sent any weather packets the latest 10 day(s).
| Time | Temp. | Humidity | Pressure | Rain* | Wind** | Luminosity | Snow |
|---|---|---|---|---|---|---|---|
| 1777417798 | 22.22° C | 69% | 1010 hPa | 0 mm | - | - | - |
| 1777417198 | 22.78° C | 70% | 1011 hPa | 0 mm | - | - | - |
| 1777416597 | 23.33° C | 69% | 1011 hPa | 0 mm | - | - | - |
| 1777415996 | 23.89° C | 63% | 1011 hPa | 0 mm | - | - | - |
| 1777415396 | 23.89° C | 66% | 1010 hPa | 0 mm | - | - | - |
| 1777414795 | 24.44° C | 68% | 1010 hPa | 0 mm | - | - | - |
| 1777414194 | 25° C | 71% | 1010 hPa | 0 mm | - | - | - |
| 1777413594 | 25.56° C | 70% | 1010 hPa | 0 mm | - | - | - |
| 1777412993 | 26.11° C | 69% | 1010 hPa | 0 mm | - | - | - |
| 1777412393 | 26.11° C | 69% | 1010 hPa | 0 mm | - | - | - |
| 1777411792 | 25° C | 68% | 1010 hPa | 0 mm | - | - | - |
| 1777411192 | 25.56° C | 66% | 1010 hPa | 0 mm | - | - | - |
| 1777410591 | 25° C | 62% | 1010 hPa | 0 mm | - | - | - |
| 1777409990 | 25.56° C | 57% | 1011 hPa | 0 mm | - | - | - |
| 1777409390 | 25.56° C | 57% | 1011 hPa | 0 mm | - | - | - |
| 1777408789 | 26.11° C | 57% | 1011 hPa | 0 mm | - | - | - |
| 1777408188 | 27.22° C | 55% | 1011 hPa | 0 mm | - | - | - |
| 1777407588 | 25.56° C | 57% | 1011 hPa | 0 mm | - | - | - |
| 1777406987 | 26.11° C | 57% | 1011 hPa | 0 mm | - | - | - |
| 1777406386 | 25.56° C | 56% | 1011 hPa | 0 mm | - | - | - |
| 1777405786 | 26.11° C | 56% | 1011 hPa | 0 mm | - | - | - |
| 1777405185 | 25.56° C | 56% | 1011 hPa | 0 mm | - | - | - |
| 1777404585 | 25.56° C | 56% | 1012 hPa | 0 mm | - | - | - |
| 1777403984 | 25.56° C | 56% | 1012 hPa | 0 mm | - | - | - |
| 1777403383 | 25.56° C | 56% | 1012 hPa | 0 mm | - | - | - |
* Rain latest hour (hover to see other rain measurements)
** Current wind speed in m/s (hover to see current wind gust speed)